www.pogodaiklimat.ru

Погода и климат >> Архив погоды >> Россия >> Якутия >> Вилюйск


АРХИВ ПОГОДЫ в Вилюйске

Время (UTC), дата Ветер
(напр.,м/с)
 
Видим.   Явления Облачность Т
(С)
Тd
(С)
f
(%)
Тe
(С)
Тes
(С)
Комфортность P
(гПа)
Po
(гПа)
Тmin
(С)
Tmax
(С)
R
(мм)
R24
(мм)
S
(см)
18 9.06 З 2 50 км {гроза, ливн. осадки} 8/8 600 м
[Cb calv Ci fib]
+14.9 +10.3 74 +15 +15 1003.9 990.9
21 9.06 штиль 0 50 км 8/5 600 м
[Cb calv Ci fib]
+15.0 +10.7 75 +15 +16 1004.2 991.2
00 10.06 Ю 3 50 км 3/0
[Ac trans]
+20.0 +12.6 62 +22 +27 комфорт 1004.0 991.1 +14.8 0.5
03 10.06 Ю 3 50 км 4/3 600 м
[Cu hum As trans]
+25.0 +10.5 40 +26 +33 жарко 1002.8 990.2
06 10.06 СЗ 1 50 км 9/8 600 м
[Cu med, cong Ac trans]
+26.2 +8.3 32 +26 +28 жарко 1001.6 989.0
09 10.06 ЮВ 6
{12}
50 км 10/5 600 м
[Cu med, cong Ac trans Ci fib]
+23.3 +8.8 40 +25 +25 комфорт 1001.2 988.5
12 10.06 Ю 2
{12}
50 км 10/3 600 м
[Sc Ac trans Ci fib]
+22.3 +9.3 43 +24 +24 комфорт 1001.1 988.3 +27.8
15 10.06 ЮВ 2 50 км 10/3 600 м
[Sc Ac trans Ci fib]
+17.6 +9.6 59 +18 +18 1000.4 987.5
18 10.06 Ю 2 50 км 9/6 600 м
[Cb calv Ac trans]
+17.3 +10.2 63 +18 +18 999.8 986.9
21 10.06 ЮЗ 2 20 км слаб. ливневой дождь 9/9 600 м
[Cb calv]
+16.6 +11.9 74 +17 +17 999.7 986.8
00 11.06 В 2 20 км слаб. ливневой дождь 9/9 600 м
[Cb calv]
+14.9 +14.2 96 +15 +15 1000.3 987.3 +14.9 3
03 11.06 ЮВ 4 50 км {ливн. осадки} 8/6 600 м
[Cb calv Ac trans]
+15.1 +13.1 88 +14 +16 999.6 986.5
06 11.06 Ю 2 50 км {ливн. осадки} 8/8 600 м
[Cu med, cong]
+21.2 +13.8 63 +24 +26 комфорт 998.3 985.6
09 11.06 ЮВ 2 50 км 5/3 600 м
[Cu hum Ci fib]
+23.8 +12.7 50 +26 +29 жарко 997.2 984.6
12 11.06 В 4 50 км ясно +22.9 +12.2 51 +26 +26 жарко 996.4 983.8 +24.4 2
15 11.06 В 3 50 км 10/0
[Cs]
+18.7 +10.6 59 +19 +19 995.9 983.1
18 11.06 ЮВ 3 50 км 10/0
[As trans Cs]
+17.4 +10.3 63 +17 +17 994.2 981.4
21 11.06 ЮВ 4 50 км 10/0
[Ac As Ci fib]
+17.0 +10.2 64 +17 +17 993.7 980.9
00 12.06 ЮВ 6 50 км 10/0
[Ac trans Ci fib]
+21.6 +9.8 47 +23 +25 комфорт 992.1 979.5 +16.6
03 12.06 Ю 4
{12}
50 км 10/4 600 м
[Cu hum Ac trans Ci fib]
+24.8 +10.5 41 +26 +28 жарко 992.0 979.5
06 12.06 З 5
{12}
50 км 10/10 600 м
[Cb calv]
+15.9 +11.5 75 +15 +15 995.9 982.9
09 12.06 З 4
{11}
20 км слаб. ливневой дождь 10/10 600 м
[Cb calv]
+9.9 +8.0 88 +7 +7 1001.1 987.8
12 12.06 СЗ 4
{10}
50 км в посл. час ливневой дождь 10/10 600 м
[Cb calv]
+9.4 +7.5 88 +6 +6 1004.6 991.3 +26.4 7
15 12.06 СЗ 4
{10}
50 км 9/4 600 м
[Sc Ac trans Ci fib]
+7.9 +4.5 79 +5 +5 1007.6 994.1
18 12.06 З 3
{10}
50 км 9/4 600 м
[Sc Ac trans Ci fib]
+6.7 +2.6 75 +4 +4 1009.5 995.9
21 12.06 СЗ 2
{10}
50 км 6/0
[Ci fib]
+5.5 +1.5 75 +3 +5 1011.8 998.2
00 13.06 З 4 50 км 8/8 600 м
[Cu med, cong]
+8.2 +2.2 66 +5 +6 1013.4 999.9 +5.4
03 13.06 З 3 50 км 8/8 600 м
[Cu med, cong]
+10.8 +1.2 51 +9 +11 1013.9 1000.5
06 13.06 СЗ 2 50 км 8/8 600 м
[Cu med, cong]
+12.8 +0.4 43 +12 +15 1014.2 1000.8
09 13.06 С 2 50 км 5/5 600 м
[Cu hum]
+13.4 +1.3 44 +13 +15 1014.5 1001.2
12 13.06 СВ 1 50 км 3/0
[Ci fib]
+12.9 +1.5 46 +13 +14 1015.0 1001.6 +14.4
15 13.06 В 2 50 км ясно +7.9 +1.8 65 +6 +6 1015.8 1002.3
18 13.06 В 2 50 км ясно +4.9 +1.9 81 +2 +2 1017.0 1003.2
21 13.06 ЮВ 3 50 км ясно +6.7 +1.8 71 +4 +5 1017.3 1003.6
00 14.06 ЮВ 2 50 км ясно +12.2 +2.9 53 +12 +19 1017.1 1003.7 +4.8
03 14.06 С 1 50 км 6/1 600 м
[Cu hum Ci fib]
+15.6 +1.9 40 +16 +28 опасность
простуды
1016.1 1002.9
06 14.06 Ю 2 50 км 4/0
[Ci fib]
+18.4 +0.5 30 +19 +29 1014.0 1000.9
09 14.06 ЮВ 3 50 км 3/0
[Ci fib]
+19.8 -0.5 26 +20 +24 1012.3 999.3
12 14.06 В 3 50 км 3/0
[Ci fib]
+19.4 +1.6 30 +20 +20 1011.6 998.6 +20.5
15 14.06 В 2 50 км ясно +13.6 +4.2 53 +13 +13 1011.6 998.3
18 14.06 штиль 0 50 км ясно +9.0 +3.7 69 +8 +8 1011.2 999.7
21 14.06 ЮВ 1 50 км ясно +12.6 +4.8 59 +13 +15 1011.1 997.7
00 15.06 ЮВ 1 50 км ясно +20.0 +4.9 37 +22 +30 комфорт 1010.5 997.5 +9.0
03 15.06 В 3 50 км ясно +23.0 +3.1 27 +23 +33 комфорт 1009.4 996.6
06 15.06 Ю 2 50 км ясно +25.5 +6.0 29 +25 +36 комфорт 1008.0 995.3
09 15.06 В 3 50 км ясно +24.9 +4.3 26 +24 +28 комфорт 1007.2 994.5
12 15.06 В 2 50 км 3/0
[Ci fib]
+23.8 +4.6 29 +24 +24 комфорт 1007.5 994.8 +25.7
15 15.06 В 2 50 км 3/0
[Ci fib]
+17.8 +7.1 49 +18 +18 1008.0 995.0
18 15.06 В 2 50 км 4/0
[Ci fib]
+13.2 +7.0 66 +13 +13 1008.2 995.0
21 15.06 В 1 50 км 4/0
[Ci fib]
+15.2 +9.0 66 +16 +18 1008.8 995.7
00 16.06 В 2 50 км 10/0
[Ci fib]
+20.9 +9.5 48 +23 +29 комфорт 1008.9 996.1 +12.1
03 16.06 В 3 50 км 10/0
[Ci fib]
+25.7 +8.3 33 +26 +34 жарко 1008.8 996.1
06 16.06 Ю 3 50 км 10/0
[Ci fib]
+28.2 +3.7 21 +27 +34 жарко 1008.7 996.1
09 16.06 Ю 2 50 км 10/0
[Cs]
+28.2 +5.3 23 +27 +31 жарко 1008.7 996.1
12 16.06 В 1 50 км 8/0
[Ci fib]
+27.3 +5.8 25 +26 +27 жарко 1009.4 996.8 +29.1

 

Местоположение метеостанции Вилюйск (Якутия, Россия): широта 63.77 долгота 121.60 высота над уровнем моря 123 м.

В архиве по умолчанию представлена погода в Вилюйске за последнюю неделю. Архивные данные за месяц целиком и за предыдущие месяцы, начиная с января 2011 года, Вы можете получить, выбрав интересующий диапазон дат из раскрывающегося списка и нажав кнопку "Ввод!".


*Определитесь, кто Вы:
робот инопланетянин человек

Внимание! Время в таблицах - всемирное. Для получения местного времени необходимо прибавить поправку, которая равна 9 ч.

Смотрите также архив погоды в соседних городах и на ближайших метеорологических станциях:

Погода в Верхневилюйске (Якутия, Россия) (78 км)
Погода в Хатырык-Хомо (Якутия, Россия) (158 км)
Погода в Нюрбе (Якутия, Россия) (172 км)
Погода в Бестяхской Звероферме (Якутия, Россия) (208 км)
Погода в Чумпуруке (Якутия, Россия) (235 км)
Погода в Сого-Хае (Якутия, Россия) (241 км)
Погода в Тонгулахе (Якутия, Россия) (253 км)
Погода в Сунтаре (Якутия, Россия) (269 км)
Погода в Сангаре (Якутия, Россия) (285 км)
Погода в Бердигестяхе (Якутия, Россия) (319 км)

Пояснения к столбцам:

Ветер - указаны скорость ветра в м/с - средняя за 10 мин, порывы в срок и между сроками (в фигурных скобках) и направление, откуда дует ветер: С - северный, СВ - северо-восточный, В - восточный, ЮВ - юго-восточный, Ю - южный, ЮЗ - юго-западный, З - западный, СЗ - северо-западный.
Видимость - горизонтальная дальность видимости в метрах или километрах. При видимости от 1 до 10 км при отсутствии осадков обычно наблюдается дымка, при ухудшении видимости до 1 км и менее - туман. В сухую погоду видимость может ухудшаться дымом, пылью или мглою.
Явления - указаны атмосферные явления, наблюдавшиеся в срок или в последний час перед сроком; фигурными скобками обозначены явления, наблюдавшиеся между сроками (за 1-3 часа до срока); квадратными скобками обозначены град или гололедные отложения с указанием их диаметра в мм.
Облачность - указаны через наклонную черту общая и нижняя облачность в баллах и высота нижней границы облаков в метрах; квадратными скобками обозначены формы облаков: Ci - перистые, Cs - перисто-слоистые, Cc - перисто-кучевые, Ac - высококучевые, As - высокослоистые, Sc - слоисто-кучевые, Ns - слоисто-дождевые, Cu - кучевые, Cb - кучево-дождевые. Подробнее классификацию облаков см. в Атласе облаков (PDF).
T - Температура воздуха - температура, измеренная на высоте 2 м над землей.
Td - Температура точки росы - температура, при понижении до которой содержащийся в воздухе водяной пар достигнет насыщения.
f - Относительная влажность воздуха - влажноcть воздуха, измеренная на высоте 2 м над землей.
Te - Эффективная температура - температура, которую ощущает одетый по сезону человек в тени. Характеристика душности погоды. При расчете учитывается влияние влажности воздуха и скорости ветра на теплоощущения человека.
Tes - Эффективная температура на солнце - температура, которую ощущает человек, с поправкой на солнечный нагрев. Характеристика знойности погоды. Зависит от высоты солнца над горизонтом, облачности и скорости ветра. Ночью, в пасмурную погоду, а также при ветре 12 м/с и более поправка равна нулю.
P - Атмосферное давление - приведенное к уровню моря атмосферное давление.
Po - Атмосферное давление - измеренное на уровне метеостанции атмосферное давление.
Tmin - Минимальная температура - минимум температуры воздуха на высоте 2 м над землей.
Tmax - Максимальная температура - максимум температуры воздуха на высоте 2 м над землей.
R - Количество осадков - Количество выпавших осадков за период времени, мм. При наведении курсора мыши на число - период времени, за который выпало указанное количество осадков.
R24 - Количество осадков - Количество выпавших осадков за 24 часа, мм.
S - Снежный покров - Высота снежного покрова, см. При наведении курсора мыши на число - состояние снежного покрова и степень покрытия местности в баллах.